When you browse on this site, cookies collect data to enhance your experience and personalize the content and advertising you see.
Visit our Privacy Policy to learn more. By continuing to use the site, you agree to this use of cookies and data.
  • în România
  • Lista ţărilor
  • Pe 7 zile
  • Temperatura apei
  • Meteo pe hartă
  • Widget-uri
  • user-avatar
    Intrare

    Meteo pe oră la Neuquén

    Astăzi, 27 Mai, Miercuri

    Timp Temperatura Precipitaţii Vânt Presiune Umiditate
    00:00 +14°C° 0 mm 3 m/s 731 mmHg 44%
    01:00 +14°C° 0 mm 4 m/s 731 mmHg 46%
    02:00 +13°C° 0 mm 4 m/s 731 mmHg 51%
    03:00 +13°C° 0 mm 3 m/s 731 mmHg 55%
    04:00 +12°C° 0 mm 3 m/s 731 mmHg 60%
    05:00 +12°C° 0 mm 3 m/s 732 mmHg 63%
    06:00 +12°C° 0 mm 3 m/s 732 mmHg 65%
    07:00 +11°C° 0 mm 3 m/s 733 mmHg 68%
    08:00 +13°C° 0 mm 3 m/s 733 mmHg 60%
    09:00 +17°C° 0 mm 4 m/s 734 mmHg 53%
    10:00 +19°C° 0 mm 4 m/s 734 mmHg 45%
    11:00 +19°C° 0 mm 4 m/s 734 mmHg 41%
    12:00 +20°C° 0 mm 5 m/s 734 mmHg 38%
    13:00 +21°C° 0 mm 5 m/s 734 mmHg 34%
    14:00 +20°C° 0 mm 4 m/s 734 mmHg 34%
    15:00 +19°C° 0 mm 4 m/s 734 mmHg 34%
    16:00 +18°C° 0 mm 4 m/s 734 mmHg 34%
    17:00 +17°C° 0 mm 4 m/s 734 mmHg 37%
    18:00 +14°C° 0 mm 4 m/s 734 mmHg 41%
    19:00 +13°C° 0 mm 3 m/s 734 mmHg 45%
    20:00 +13°C° 0 mm 4 m/s 734 mmHg 46%
    21:00 +12°C° 0 mm 4 m/s 734 mmHg 47%
    22:00 +11°C° 0 mm 4 m/s 735 mmHg 48%
    23:00 +11°C° 0 mm 4 m/s 734 mmHg 48%

    Mâine, 28 Mai, Joi

    Timp Temperatura Precipitaţii Vânt Presiune Umiditate
    00:00 +10°C° 0 mm 4 m/s 734 mmHg 49%
    01:00 +10°C° 0 mm 3 m/s 734 mmHg 50%
    02:00 +10°C° 0 mm 3 m/s 734 mmHg 49%
    03:00 +8°C° 0 mm 4 m/s 734 mmHg 47%
    04:00 +8°C° 0 mm 4 m/s 733 mmHg 46%
    05:00 +9°C° 0 mm 3 m/s 734 mmHg 46%
    06:00 +8°C° 0 mm 3 m/s 734 mmHg 45%
    07:00 +8°C° 0 mm 3 m/s 734 mmHg 45%
    08:00 +10°C° 0 mm 4 m/s 734 mmHg 42%
    09:00 +11°C° 0 mm 4 m/s 734 mmHg 40%
    10:00 +12°C° 0 mm 5 m/s 734 mmHg 37%
    11:00 +13°C° 0 mm 5 m/s 733 mmHg 37%
    12:00 +14°C° 0 mm 5 m/s 733 mmHg 36%
    13:00 +15°C° 0 mm 5 m/s 732 mmHg 35%
    14:00 +15°C° 0 mm 5 m/s 732 mmHg 36%
    15:00 +14°C° 0 mm 5 m/s 732 mmHg 37%
    16:00 +14°C° 0 mm 5 m/s 732 mmHg 37%
    17:00 +13°C° 0.1 mm 6 m/s 733 mmHg 39%
    18:00 +11°C° 0.1 mm 7 m/s 733 mmHg 41%
    19:00 +11°C° 0.1 mm 7 m/s 733 mmHg 42%
    20:00 +10°C° 0.1 mm 7 m/s 734 mmHg 50%
    21:00 +9°C° 0.1 mm 7 m/s 734 mmHg 58%
    22:00 +8°C° 0.1 mm 7 m/s 735 mmHg 66%
    23:00 +8°C° 0 mm 7 m/s 735 mmHg 70%

    Poimâine, 29 Mai, Vineri

    Timp Temperatura Precipitaţii Vânt Presiune Umiditate
    00:00 +8°C° 0 mm 6 m/s 735 mmHg 74%
    01:00 +7°C° 0 mm 6 m/s 735 mmHg 78%
    02:00 +7°C° 0.1 mm 5 m/s 735 mmHg 79%
    03:00 +8°C° 0.1 mm 5 m/s 735 mmHg 80%
    04:00 +8°C° 0.1 mm 5 m/s 736 mmHg 81%
    05:00 +7°C° 1.5 mm 5 m/s 736 mmHg 82%
    06:00 +7°C° 1.5 mm 5 m/s 736 mmHg 84%
    07:00 +7°C° 1.5 mm 5 m/s 736 mmHg 85%
    08:00 +7°C° 1.9 mm 6 m/s 737 mmHg 84%
    09:00 +7°C° 1.9 mm 6 m/s 737 mmHg 84%
    10:00 +5°C° 1.9 mm 6 m/s 738 mmHg 84%
    11:00 +7°C° 1.7 mm 6 m/s 738 mmHg 82%
    12:00 +7°C° 1.7 mm 6 m/s 738 mmHg 81%
    13:00 +7°C° 1.7 mm 6 m/s 738 mmHg 79%
    14:00 +7°C° 0.3 mm 5 m/s 738 mmHg 76%
    15:00 +7°C° 0.3 mm 5 m/s 738 mmHg 74%
    16:00 +7°C° 0.3 mm 4 m/s 738 mmHg 71%
    17:00 +7°C° 0.3 mm 4 m/s 739 mmHg 72%
    18:00 +7°C° 0.3 mm 4 m/s 739 mmHg 73%
    19:00 +7°C° 0.3 mm 4 m/s 740 mmHg 74%
    20:00 +7°C° 0.1 mm 4 m/s 740 mmHg 71%
    21:00 +7°C° 0.1 mm 4 m/s 740 mmHg 69%
    22:00 +8°C° 0.1 mm 3 m/s 740 mmHg 67%
    23:00 +7°C° 0 mm 4 m/s 740 mmHg 66%

    30 Mai, Sâmbătă

    Timp Temperatura Precipitaţii Vânt Presiune Umiditate
    00:00 +6°C° 0 mm 5 m/s 740 mmHg 66%
    01:00 +6°C° 0 mm 5 m/s 740 mmHg 66%
    02:00 +5°C° 0 mm 5 m/s 740 mmHg 66%
    03:00 +5°C° 0 mm 5 m/s 740 mmHg 67%
    04:00 +5°C° 0 mm 5 m/s 740 mmHg 68%
    05:00 +4°C° 0 mm 4 m/s 740 mmHg 68%
    06:00 +4°C° 0 mm 4 m/s 740 mmHg 69%
    07:00 +4°C° 0 mm 4 m/s 741 mmHg 69%
    08:00 +5°C° 0 mm 3 m/s 741 mmHg 64%
    09:00 +7°C° 0 mm 3 m/s 741 mmHg 59%
    10:00 +9°C° 0 mm 3 m/s 741 mmHg 54%
    11:00 +9°C° 0 mm 3 m/s 741 mmHg 51%
    12:00 +10°C° 0 mm 3 m/s 740 mmHg 48%
    13:00 +10°C° 0 mm 3 m/s 740 mmHg 44%
    14:00 +10°C° 0 mm 3 m/s 740 mmHg 44%
    15:00 +10°C° 0 mm 3 m/s 739 mmHg 45%
    16:00 +10°C° 0 mm 3 m/s 739 mmHg 45%
    17:00 +9°C° 0 mm 2 m/s 739 mmHg 48%
    18:00 +9°C° 0 mm 1 m/s 739 mmHg 52%
    19:00 +8°C° 0 mm 1 m/s 739 mmHg 55%
    20:00 +8°C° 0 mm 1 m/s 739 mmHg 56%
    21:00 +8°C° 0 mm 1 m/s 739 mmHg 56%
    22:00 +7°C° 0 mm 2 m/s 738 mmHg 57%
    23:00 +6°C° 0 mm 2 m/s 738 mmHg 58%

    31 Mai, Duminică

    Timp Temperatura Precipitaţii Vânt Presiune Umiditate
    00:00 +6°C° 0 mm 2 m/s 738 mmHg 60%
    01:00 +6°C° 0 mm 2 m/s 738 mmHg 62%
    02:00 +6°C° 0 mm 2 m/s 738 mmHg 63%
    03:00 +6°C° 0 mm 1 m/s 737 mmHg 65%
    04:00 +6°C° 0 mm 1 m/s 737 mmHg 66%
    05:00 +6°C° 0 mm 1 m/s 737 mmHg 65%
    06:00 +5°C° 0 mm 2 m/s 737 mmHg 65%
    07:00 +5°C° 0 mm 2 m/s 737 mmHg 64%
    08:00 +6°C° 0 mm 2 m/s 737 mmHg 56%
    09:00 +8°C° 0 mm 2 m/s 737 mmHg 49%
    10:00 +10°C° 0 mm 2 m/s 737 mmHg 42%
    11:00 +12°C° 0 mm 2 m/s 737 mmHg 39%
    12:00 +12°C° 0 mm 2 m/s 736 mmHg 36%
    13:00 +13°C° 0 mm 2 m/s 736 mmHg 33%
    14:00 +13°C° 0 mm 2 m/s 736 mmHg 37%
    15:00 +12°C° 0 mm 1 m/s 735 mmHg 40%
    16:00 +12°C° 0 mm 1 m/s 735 mmHg 43%
    17:00 +11°C° 0 mm 1 m/s 735 mmHg 44%
    18:00 +11°C° 0 mm 1 m/s 735 mmHg 45%
    19:00 +10°C° 0 mm 1 m/s 735 mmHg 46%
    20:00 +10°C° 0 mm 1 m/s 735 mmHg 46%
    21:00 +9°C° 0 mm 1 m/s 735 mmHg 47%
    22:00 +9°C° 0 mm 1 m/s 735 mmHg 47%
    23:00 +8°C° 0 mm 2 m/s 734 mmHg 48%

    1 Iunie, Luni

    Timp Temperatura Precipitaţii Vânt Presiune Umiditate
    00:00 +8°C° 0 mm 2 m/s 734 mmHg 50%
    01:00 +7°C° 0 mm 2 m/s 734 mmHg 51%
    02:00 +7°C° 0 mm 3 m/s 734 mmHg 52%
    03:00 +7°C° 0 mm 3 m/s 734 mmHg 53%
    04:00 +7°C° 0 mm 3 m/s 734 mmHg 54%
    05:00 +6°C° 0 mm 4 m/s 734 mmHg 55%
    06:00 +6°C° 0 mm 4 m/s 735 mmHg 55%
    07:00 +6°C° 0 mm 4 m/s 735 mmHg 55%
    08:00 +8°C° 0 mm 5 m/s 735 mmHg 51%
    09:00 +9°C° 0 mm 6 m/s 735 mmHg 47%
    10:00 +11°C° 0 mm 7 m/s 735 mmHg 43%
    11:00 +12°C° 0 mm 7 m/s 735 mmHg 40%
    12:00 +14°C° 0 mm 7 m/s 734 mmHg 37%
    13:00 +16°C° 0 mm 7 m/s 734 mmHg 34%
    14:00 +15°C° 0 mm 6 m/s 734 mmHg 35%
    15:00 +15°C° 0 mm 5 m/s 734 mmHg 37%
    16:00 +14°C° 0 mm 4 m/s 734 mmHg 39%
    17:00 +14°C° 0 mm 5 m/s 734 mmHg 41%
    18:00 +14°C° 0 mm 5 m/s 734 mmHg 42%
    19:00 +14°C° 0 mm 6 m/s 734 mmHg 44%
    20:00 +13°C° 0 mm 6 m/s 734 mmHg 45%
    21:00 +12°C° 0 mm 7 m/s 734 mmHg 47%
    22:00 +12°C° 0 mm 7 m/s 734 mmHg 48%
    23:00 +11°C° 0 mm 6 m/s 734 mmHg 52%
    Arată mai mult